LPG1029 URMM-URMM

Flight info

Callsign LPG1029
Flight time 0h 22m
Altitude 32000
Route 4412N04253E 4403N04251E 4403N04260E 4406N04313E
Aircraft A346/M-VGDW/C

Departure

Time 2026-05-04 16:32
Airport Mineralnye Vody Airport (URMM)

Arrival

Time 2026-05-04 16:55
Airport Mineralnye Vody Airport (URMM)
Time Latitude Longitude Altitude Speed Heading
2026-05-04 15:59 44.21898 43.08972 1051 ft 0 kts 31°
2026-05-04 16:26 44.21917 43.08983 1051 ft 2 kts 357°
2026-05-04 16:26 44.21953 43.08917 1051 ft 3 kts 298°
2026-05-04 16:27 44.21917 43.08830 1051 ft 10 kts 161°
2026-05-04 16:28 44.21892 43.09088 1051 ft 3 kts 30°
2026-05-04 16:28 44.22001 43.09107 1051 ft 10 kts 333°
2026-05-04 16:29 44.22252 43.08924 1051 ft 0 kts 330°
2026-05-04 16:30 44.22274 43.08908 1051 ft 8 kts 329°
2026-05-04 16:31 44.22427 43.08786 1051 ft 14 kts 320°
2026-05-04 16:31 44.22294 43.09166 1054 ft 70 kts 120°
2026-05-04 16:32 44.21466 43.10597 1776 ft 65 kts 129°
2026-05-04 16:33 44.20751 43.11492 2143 ft 80 kts 157°
2026-05-04 16:33 44.19750 43.10729 2447 ft 95 kts 207°
2026-05-04 16:34 44.18365 43.09920 2526 ft 118 kts 204°
2026-05-04 16:34 44.17816 43.09034 2449 ft 129 kts 252°
2026-05-04 16:35 44.17777 43.05227 2399 ft 126 kts 269°
2026-05-04 16:35 44.17834 43.01358 2232 ft 133 kts 282°
2026-05-04 16:36 44.18040 43.00106 2231 ft 132 kts 283°
2026-05-04 16:36 44.18921 42.97881 2119 ft 139 kts 304°
2026-05-04 16:37 44.20011 42.95581 1956 ft 139 kts 304°
2026-05-04 16:37 44.20529 42.94466 1953 ft 135 kts 304°
2026-05-04 16:37 44.21648 42.93090 1981 ft 127 kts 346°
2026-05-04 16:38 44.23375 42.92944 2017 ft 123 kts 358°
2026-05-04 16:39 44.25456 42.94159 2016 ft 103 kts 32°
2026-05-04 16:39 44.26640 42.95216 2017 ft 99 kts 32°
2026-05-04 16:40 44.27407 42.96681 2053 ft 85 kts 78°
2026-05-04 16:40 44.27107 42.98243 1912 ft 86 kts 116°
2026-05-04 16:41 44.26553 42.99668 1785 ft 81 kts 121°
2026-05-04 16:41 44.25753 43.01493 1548 ft 70 kts 121°
2026-05-04 16:42 44.25017 43.03131 1397 ft 66 kts 121°
2026-05-04 16:43 44.24527 43.04216 1286 ft 66 kts 120°
2026-05-04 16:43 44.24058 43.05256 1247 ft 66 kts 121°
2026-05-04 16:43 44.23804 43.05823 1180 ft 73 kts 122°
2026-05-04 16:44 44.22733 43.08192 1164 ft 95 kts 122°
2026-05-04 16:45 44.22051 43.09709 1691 ft 92 kts 120°
2026-05-04 16:46 44.20973 43.12189 2021 ft 116 kts 124°
2026-05-04 16:46 44.19627 43.13337 2014 ft 123 kts 186°
2026-05-04 16:47 44.18272 43.11955 2018 ft 124 kts 214°
2026-05-04 16:47 44.17960 43.09816 2016 ft 124 kts 296°
2026-05-04 16:48 44.19296 43.06704 2018 ft 125 kts 301°
2026-05-04 16:48 44.19747 43.05681 2018 ft 125 kts 301°
2026-05-04 16:49 44.20658 43.03616 2018 ft 125 kts 301°
2026-05-04 16:49 44.21569 43.01548 2018 ft 125 kts 301°
2026-05-04 16:50 44.22478 42.99488 2018 ft 125 kts 301°
2026-05-04 16:50 44.23497 42.97534 2015 ft 125 kts 326°
2026-05-04 16:51 44.25052 42.97842 2016 ft 124 kts 46°
2026-05-04 16:51 44.25592 42.98755 2082 ft 112 kts 52°
2026-05-04 16:51 44.26436 43.00528 1878 ft 114 kts 77°
2026-05-04 16:52 44.25866 43.01759 1789 ft 73 kts 136°
2026-05-04 16:52 44.25515 43.02263 1684 ft 72 kts 129°
2026-05-04 16:53 44.24938 43.03341 1538 ft 67 kts 122°
2026-05-04 16:53 44.24160 43.05030 1261 ft 71 kts 123°
2026-05-04 16:54 44.23900 43.05610 1186 ft 68 kts 122°
2026-05-04 16:55 44.23027 43.07541 1051 ft 44 kts 119°
2026-05-04 16:55 44.22766 43.08121 1051 ft 34 kts 121°
2026-05-04 16:56 44.22462 43.08744 1051 ft 43 kts 138°
2026-05-04 16:56 44.21882 43.09083 1051 ft 13 kts 211°
2026-05-04 16:57 44.21833 43.09002 1051 ft 2 kts 319°
2026-05-04 16:57 44.21901 43.08975 1051 ft 2 kts 30°